TJS-1

Last updated on Mon Jun 22 2026 00:03:05 GMT+0000 (Coordinated Universal Time)

1 40892U 15046A 26172.49419822 -.00000157 00000+0 00000+0 0 9998 2 40892 0.3355 84.9191 0005700 1.7947 155.9330 1.00270865 39617
UTC large
Height (km)
Speed (km/s)
/
Latitude / Longitude
Inclination (degrees)
Orbital Period (minutes)
Azimuth
Elevation
Range (km)
Doppler Factor

Next 0 passes for location: London (51.5072 / 0.1276)

No passes found over London.
TJS-1